TimeCDT,TemperatureF,Dew PointF,Humidity,Sea Level PressureIn,VisibilityMPH,Wind Direction,Wind SpeedMPH,Gust SpeedMPH,PrecipitationIn,Events,Conditions,WindDirDegrees,DateUTC
12:58 AM,63.5,59.0,85,29.71,10.0,SSE,10.4,-,N/A,,Scattered Clouds,150,2013-05-31 05:58:00
1:23 AM,64.4,59.0,83,29.71,10.0,South,11.5,-,N/A,,Mostly Cloudy,170,2013-05-31 06:23:00
1:28 AM,64.4,59.0,83,29.71,10.0,South,12.7,17.3,N/A,,Mostly Cloudy,170,2013-05-31 06:28:00
1:58 AM,63.5,59.2,86,29.71,10.0,South,9.2,-,N/A,,Mostly Cloudy,180,2013-05-31 06:58:00
2:58 AM,64.4,59.0,83,29.70,10.0,South,9.2,-,N/A,,Overcast,170,2013-05-31 07:58:00
3:28 AM,64.4,59.0,83,29.71,10.0,South,6.9,-,N/A,,Mostly Cloudy,170,2013-05-31 08:28:00
3:58 AM,63.9,59.7,86,29.71,10.0,South,8.1,-,N/A,,Mostly Cloudy,170,2013-05-31 08:58:00
4:03 AM,64.4,59.0,83,29.71,10.0,South,8.1,-,N/A,,Mostly Cloudy,170,2013-05-31 09:03:00
4:13 AM,64.4,59.0,83,29.70,10.0,South,6.9,-,N/A,,Mostly Cloudy,170,2013-05-31 09:13:00
4:28 AM,62.6,59.0,88,29.70,10.0,SE,5.8,-,N/A,,Mostly Cloudy,140,2013-05-31 09:28:00
4:33 AM,62.6,59.0,88,29.70,10.0,SE,5.8,-,N/A,,Mostly Cloudy,130,2013-05-31 09:33:00
4:58 AM,63.0,59.5,89,29.70,10.0,SSE,9.2,-,N/A,,Mostly Cloudy,150,2013-05-31 09:58:00
5:08 AM,62.6,59.0,88,29.70,10.0,SSE,9.2,-,N/A,,Scattered Clouds,150,2013-05-31 10:08:00
5:13 AM,62.6,59.0,88,29.70,10.0,SSE,9.2,-,N/A,,Mostly Cloudy,160,2013-05-31 10:13:00
5:23 AM,62.6,59.0,88,29.69,10.0,SSE,10.4,-,N/A,,Scattered Clouds,150,2013-05-31 10:23:00
5:33 AM,62.6,59.0,88,29.69,10.0,SSE,10.4,-,N/A,,Mostly Cloudy,160,2013-05-31 10:33:00
5:43 AM,62.6,59.0,88,29.71,10.0,South,6.9,-,N/A,,Mostly Cloudy,190,2013-05-31 10:43:00
5:58 AM,63.3,59.9,89,29.72,10.0,Variable,6.9,-,N/A,,Overcast,0,2013-05-31 10:58:00
6:58 AM,64.4,60.8,88,29.70,10.0,South,13.8,-,N/A,,Overcast,170,2013-05-31 11:58:00
7:13 AM,64.4,60.8,88,29.69,10.0,South,16.1,23.0,N/A,,Mostly Cloudy,170,2013-05-31 12:13:00
7:23 AM,64.4,60.8,88,29.69,10.0,South,12.7,23.0,N/A,,Mostly Cloudy,170,2013-05-31 12:23:00
7:58 AM,66.2,60.8,83,29.72,10.0,Variable,6.9,-,N/A,,Overcast,0,2013-05-31 12:58:00
8:58 AM,66.2,60.8,83,29.73,10.0,South,10.4,17.3,N/A,,Overcast,170,2013-05-31 13:58:00
9:58 AM,69.8,62.6,78,29.71,10.0,SSE,15.0,20.7,N/A,,Scattered Clouds,160,2013-05-31 14:58:00
10:58 AM,73.4,62.6,69,29.71,10.0,South,18.4,-,N/A,,Scattered Clouds,190,2013-05-31 15:58:00
11:58 AM,73.4,62.6,69,29.72,10.0,South,17.3,25.3,N/A,,Scattered Clouds,180,2013-05-31 16:58:00
12:58 PM,73.4,62.6,69,29.72,10.0,South,9.2,24.2,N/A,,Scattered Clouds,190,2013-05-31 17:58:00
1:58 PM,75.2,62.6,65,29.71,10.0,SSW,10.4,19.6,N/A,,Scattered Clouds,200,2013-05-31 18:58:00
2:58 PM,78.8,59.0,51,29.68,10.0,SSW,9.2,24.2,N/A,,Scattered Clouds,210,2013-05-31 19:58:00
3:58 PM,78.8,57.2,47,29.66,10.0,SSW,15.0,28.8,N/A,,Scattered Clouds,200,2013-05-31 20:58:00
4:58 PM,78.8,57.2,47,29.65,10.0,South,13.8,24.2,N/A,,Scattered Clouds,180,2013-05-31 21:58:00
5:58 PM,77.0,59.0,54,29.65,10.0,SSW,9.2,18.4,N/A,,Scattered Clouds,210,2013-05-31 22:58:00
6:58 PM,75.2,59.0,57,29.64,10.0,South,13.8,18.4,N/A,,Scattered Clouds,180,2013-05-31 23:58:00
7:58 PM,73.4,60.8,65,29.65,10.0,South,12.7,-,N/A,,Scattered Clouds,190,2013-06-01 00:58:00
8:58 PM,69.8,60.4,72,29.66,10.0,South,8.1,-,N/A,,Clear,180,2013-06-01 01:58:00
9:58 PM,67.5,60.4,78,29.66,10.0,SSE,4.6,-,N/A,,Clear,150,2013-06-01 02:58:00
10:58 PM,66.6,60.4,81,29.66,10.0,SSE,4.6,-,N/A,,Clear,160,2013-06-01 03:58:00
11:58 PM,65.5,61.0,85,29.67,10.0,South,6.9,-,N/A,,Clear,170,2013-06-01 04:58:00